Content
SEND FEEDBACK

Daily
Averages
Monthly
Summary
India

NARODA, INDIA


Home > Asia > India
Elevation: 180 feet     Latitude: 23 01N     Longitude: 072 37E

WEATHER
 
SELECT A DAY
Number of Records: 210,786;   Date Range: 7/1/96 - 8/31/14
 
SHARE

PRINT THIS DATA

[ ← Previous Day ]
WEATHER ALMANAC - JANUARY 31, 2013
[ Next Day → ]
[ °C ]   °F
Weather ElementAverageHighLow
Temperature73.8 °F87.8 °F (2:40 pm)64.4 °F (4:10 am)
Dewpoint48.2 °F58 °F (8:30 pm)42.8 °F (12:40 am)
Humidity39.6 %56 % (10:40 pm)21 % (2:30 pm)
Barometer29.93 in30.01 in (11:30 am)29.86 in (3:10 pm)
Wind Speed6 mph10.4 mph (8:10 am)
Weather ElementAverage
Visibility2.7 mi
Wind DirectionENE (71.7 °)

Weather ElementTotal
Precipitation---
Cooling Degree Days11.1 (Base 65)
Growing Degree Days26.1 (Base 50)
Averaged from 49 records on January 31, 2013
WEATHER CONDITIONS BREAKOUT
WIND DIRECTION BREAKOUT
WEATHER BY HOUR - JANUARY 31, 2013
[ °C ]   °F
Local TimeTemperatureDewpointHumidityBarometerVisibilityWind DirectionWind SpeedGust SpeedPrecipitationEventsConditions
12:40 AM69.8 °F42.8 °F38 %29.92 in2.5 miNE (50°)6.9 mphSmoke
1:10 AM69.8 °F42.8 °F38 %29.92 in2.5 miEast (90°)5.8 mphSmoke
1:40 AM69.8 °F42.8 °F38 %29.92 in2.5 miNE (50°)6.9 mphSmoke
2:10 AM68.0 °F42.8 °F40 %29.92 in2.5 miNE (50°)5.8 mphSmoke
2:30 AM69.0 °F46.0 °F33 %29.94 in2.0 miEast (90°)5.8 mph
2:40 AM66.2 °F44.6 °F46 %29.92 in2.5 miNNE (20°)5.8 mphSmoke
3:10 AM66.2 °F44.6 °F46 %29.92 in2.5 miNE (50°)5.8 mphSmoke
3:40 AM66.2 °F44.6 °F46 %29.92 in2.5 miNE (50°)6.9 mphSmoke
4:10 AM64.4 °F44.6 °F49 %29.92 in2.5 miENE (60°)6.9 mphSmoke
4:40 AM64.4 °F44.6 °F49 %29.92 in2.5 miENE (60°)6.9 mphSmoke
5:10 AM66.2 °F42.8 °F43 %29.92 in2.5 miENE (70°)5.8 mphSmoke
5:30 AM67.0 °F46.0 °F35 %29.95 in2.0 miEast (90°)5.8 mphClear
5:40 AM66.2 °F42.8 °F43 %29.92 in2.5 miENE (70°)8.1 mphSmoke
6:10 AM66.2 °F42.8 °F43 %29.92 in2.5 miENE (70°)6.9 mphSmoke
6:40 AM66.2 °F42.8 °F43 %29.92 in2.5 miEast (80°)6.9 mphSmoke
7:10 AM66.2 °F42.8 °F43 %29.95 in2.2 miENE (70°)8.1 mphSmoke
7:40 AM64.4 °F44.6 °F49 %29.95 in2.2 miEast (80°)9.2 mphSmoke
8:10 AM66.2 °F42.8 °F43 %29.95 in2.2 miEast (80°)10.4 mphSmoke
8:30 AM67.0 °F46.0 °F35 %29.99 in2.0 miEast (90°)4.6 mphPartly Cloudy
8:40 AM68.0 °F44.6 °F43 %29.98 in2.2 miENE (70°)10.4 mphSmoke
9:40 AM71.6 °F44.6 °F38 %29.98 in2.5 miEast (90°)10.4 mphSmoke
10:10 AM75.2 °F44.6 °F34 %29.98 in2.5 miEast (100°)9.2 mphSmoke
11:10 AM78.8 °F48.2 °F34 %29.98 in3.1 miEast (100°)10.4 mphSmoke
11:30 AM79.0 °F48.0 °F24 %30.01 in2.0 miEast (90°)4.6 mphPartly Cloudy
11:40 AM80.6 °F48.2 °F32 %29.98 in3.7 miEast (80°)9.2 mph
12:10 PM84.2 °F50.0 °F30 %29.95 in3.7 miESE (110°)9.2 mph
1:10 PM84.2 °F51.8 °F33 %29.95 in3.7 miEast (90°)10.4 mph
1:40 PM84.2 °F50.0 °F30 %29.92 in3.7 miENE (70°)6.9 mph
2:10 PM86.0 °F51.8 °F31 %29.89 in3.7 miEast (80°)5.8 mph
2:30 PM85.0 °F51.0 °F21 %29.93 in2.0 miEast (90°)2.3 mphClear
2:40 PM87.8 °F53.6 °F31 %29.89 in3.7 miEast (100°)3.5 mph
3:10 PM87.8 °F53.6 °F31 %29.86 in3.7 miENE (70°)5.8 mph
3:40 PM87.8 °F53.6 °F31 %29.86 in3.7 miEast (90°)4.6 mph
4:10 PM87.8 °F53.6 °F31 %29.86 in3.7 miEast (80°)5.8 mph
4:40 PM86.0 °F51.8 °F31 %29.86 in3.7 miENE (60°)5.8 mph
5:10 PM86.0 °F51.8 °F31 %29.89 in3.7 miENE (70°)5.8 mph
5:30 PM83.0 °F52.0 °F24 %29.92 in2.0 miNorth2.3 mphClear
7:10 PM78.8 °F51.8 °F39 %29.92 in2.5 miEast (80°)3.5 mphSmoke
7:40 PM77.0 °F53.6 °F44 %29.92 in2.5 miEast (90°)3.5 mphSmoke
8:10 PM75.2 °F51.8 °F44 %29.95 in2.5 miEast (90°)3.5 mphSmoke
8:30 PM71.0 °F58.0 °F53 %29.96 in2.0 miCalmHaze
8:40 PM75.2 °F51.8 °F44 %29.95 in2.5 miEast (90°)3.5 mphSmoke
9:10 PM71.6 °F51.8 °F50 %29.95 in2.5 miNE (50°)3.5 mphSmoke
9:40 PM69.8 °F51.8 °F53 %29.95 in2.5 miENE (60°)3.5 mphSmoke
10:10 PM69.8 °F51.8 °F53 %29.95 in2.5 miNE (50°)4.6 mphSmoke
10:40 PM68.0 °F51.8 °F56 %29.95 in2.5 miENE (60°)4.6 mphSmoke
11:10 PM69.8 °F50.0 °F49 %29.95 in2.5 miNE (50°)4.6 mphSmoke
11:30 PM71.0 °F52.0 °F41 %29.98 in2.0 miNE (50°)2.3 mphHaze
11:40 PM68.0 °F50.0 °F52 %29.95 in2.5 miENE (60°)4.6 mphSmoke
Hourly data recorded from VAAH, located miles away from Naroda, India







STORIES FROM OUR PARTNERS